Location: Dresden
(51.0500°N, 13.7500°E)
Time: 08:59:51
(UTC+00:00)

ISS - Pass Details

Date: 26 March 2019
Orbit: 408 x 410 km, 51.6° (Epoch: 21 April)

Event Time Altitude Azimuth Distance (km) Brightness Sun altitude
Rises 18:22:48 0° 242° (WSW) 2,331 0.8 -9.4°
Reaches altitude 10° 18:24:54 10° 238° (WSW) 1,472 -0.4 -9.7°
Maximum altitude 18:28:09 58° 159° (SSE) 484 -3.7 -10.2°
Enters shadow 18:30:49 14° 82° (E) 1,242 -1.9 -10.6°
